Location: G�kdere
(37.0328°N, 30.9000°E)
Time: 04:08:57
(UTC+00:00)

Cosmos 2242 Rocket - Pass Details

Date: 03 March 2021
Orbit: 617 x 652 km, 82.5° (Epoch: 19 April)

Event Time Altitude Azimuth Distance (km) Brightness Sun altitude
Rises 17:30:36 0° 351° (N) 2,948 7.2 -20.3°
Reaches altitude 10° 17:32:51 10° 350° (N) 2,029 6.4 -20.8°
Maximum altitude 17:37:21 78° 265° (W) 649 3.6 -21.7°
Enters shadow 17:41:43 10° 179° (S) 1,973 6.0 -22.5°
